PDT,Max TemperatureF,Mean TemperatureF,Min TemperatureF,Max Dew PointF,MeanDew PointF,Min DewpointF,Max Humidity, Mean Humidity, Min Humidity, Max Sea Level PressureIn, Mean Sea Level PressureIn, Min Sea Level PressureIn, Max VisibilityMiles, Mean VisibilityMiles, Min VisibilityMiles, Max Wind SpeedMPH, Mean Wind SpeedMPH, Max Gust SpeedMPH,PrecipitationIn, CloudCover, Events, WindDirDegrees
2013-8-1,70,66,61,60,57,56,85,76,63,30.04,29.98,29.91,7,6,5,9,4,,0.00,5,,185
2013-8-2,71,64,58,61,57,53,83,78,68,29.97,29.95,29.91,7,7,7,12,5,,0.00,4,,279
2013-8-3,68,64,61,60,59,57,87,80,72,30.00,29.98,29.96,7,6,5,12,4,,0.00,7,,286
2013-8-4,67,64,61,59,57,53,87,76,64,30.02,29.99,29.95,7,5,3,10,4,,0.00,7,,270
2013-8-5,70,65,60,59,57,57,90,80,63,30.02,29.98,29.94,7,5,1,10,4,,0.00,6,,258
2013-8-6,68,64,60,59,57,56,90,77,68,30.04,30.02,29.99,7,7,4,85,8,92,0.00,6,,245
2013-8-7,69,65,61,59,57,56,86,78,65,30.08,30.03,29.99,7,6,5,13,5,22,0.00,5,,271
2013-8-8,70,66,61,60,58,57,86,79,65,29.99,29.96,29.92,7,7,7,14,4,,0.00,4,,267
2013-8-9,70,65,60,60,57,55,84,74,65,29.96,29.95,29.91,7,7,6,16,5,,0.00,5,,215
2013-8-10,69,66,64,60,59,58,84,75,70,30.04,30.00,29.97,7,7,7,13,5,16,0.00,5,,222
2013-8-11,67,66,64,60,59,58,84,77,73,29.99,29.96,29.91,7,7,7,12,4,17,0.00,7,,256
2013-8-12,68,65,62,61,59,57,87,80,73,29.99,29.95,29.91,7,7,7,12,5,18,0.00,6,,245
2013-8-13,71,66,61,61,59,58,92,83,69,29.99,29.93,29.89,7,5,4,10,5,,0.00,7,,233
2013-8-14,69,64,60,61,60,59,97,87,75,29.94,29.89,29.84,4,2,0,16,9,23,0.00,7,Fog,197
2013-8-15,69,65,61,63,61,60,94,88,77,29.95,29.92,29.88,4,2,0,16,6,18,0.00,8,Fog,245
2013-8-16,72,66,60,63,61,59,100,86,68,29.97,29.94,29.91,7,2,0,12,3,21,0.00,7,Fog,239
2013-8-17,70,66,61,61,59,57,87,79,73,29.95,29.90,29.82,7,6,4,15,6,21,0.00,5,Fog,273
2013-8-18,68,66,64,62,61,60,88,84,79,29.88,29.85,29.82,7,6,4,9,3,,0.00,7,,252
2013-8-19,70,66,61,62,61,59,94,83,72,29.95,29.91,29.87,7,4,1,10,3,,0.00,7,,245
2013-8-20,69,66,62,60,59,58,90,79,69,29.95,29.91,29.87,7,6,2,13,5,18,0.00,4,,306
2013-8-21,71,66,61,61,58,56,94,75,64,29.94,29.90,29.86,7,7,5,14,5,,0.00,3,,308
2013-8-22,74,66,59,63,59,55,86,73,57,29.92,29.89,29.83,7,7,7,13,5,20,0.00,1,,312
2013-8-23,72,66,59,62,59,53,89,75,59,29.87,29.81,29.74,7,7,7,15,4,59,0.00,0,,291
2013-8-24,69,65,61,63,61,60,96,83,76,29.84,29.81,29.78,7,7,6,13,4,,0.00,3,,222
2013-8-25,71,68,64,62,60,59,84,78,71,29.91,29.88,29.84,7,6,4,12,5,,0.00,4,,265
2013-8-26,73,65,57,63,60,56,96,80,67,29.92,29.88,29.82,7,6,0,13,4,,0.00,1,Fog,300
2013-8-27,71,67,63,62,60,59,90,80,72,29.86,29.82,29.78,7,7,7,13,6,,0.00,3,,297
2013-8-28,73,68,62,64,61,58,91,79,66,29.88,29.84,29.78,7,7,7,9,5,,0.00,0,,291
2013-8-29,75,68,62,63,61,59,89,75,65,29.94,29.90,29.86,7,7,7,10,4,,0.00,1,,299
2013-8-30,78,72,66,66,64,57,79,71,60,29.97,29.93,29.90,7,7,7,15,5,22,0.00,2,,246
2013-8-31,82,80,76,65,62,57,62,55,47,29.97,29.94,29.88,7,7,7,9,3,,0.00,2,,227